Location: Bastelaar
(51.0950°N, 3.8602°E)
Time: 08:02:16
(UTC+00:00)

SKYMED 2 - Pass Details

Date: 18 November 2025
Orbit: 621 x 623 km, 97.9° (Epoch: 13 December)

Event Time Altitude Azimuth Distance (km) Brightness Sun altitude
Exits shadow 18:03:32 18° 16° (NNE) 1,523 5.3 -20.2°
Maximum altitude 18:06:42 85° 102° (ESE) 632 3.4 -20.7°
Drops below altitude 10° 18:11:03 10° 194° (SSW) 1,988 6.4 -21.4°
Sets 18:13:13 0° 195° (SSW) 2,889 7.2 -21.7°
